Location: Northern Prairie Star Party
(53.2167°N, 112.5333°W)
Time: 18:50:39
(UTC-06:00)

Daily predictions for brighter satellites

Satellite Brightness Start Highest point End
(mag) Time Altitude Azimuth Time Altitude Azimuth Time Altitude Azimuth
Cosmos 2218 Rocket 4.0 18:42:12 10° S 18:48:15 64° E 18:54:21 10° NNE
Ariane Rocket 3.4 18:43:27 10° S 18:48:34 75° WSW 18:53:42 10° NNW
Cosmos 1727 Rocket 4.1 18:42:29 10° N 18:48:53 72° ENE 18:55:12 10° SSE
Aureole 2 4.2 18:46:48 10° NNW 18:49:51 90° NNW 18:53:12 10° SSE
SL-16 R/B 4.5 18:45:49 10° NW 18:50:44 31° WSW 18:55:37 10° SSW
Cosmos 1484 Rocket 2.8 18:48:42 10° SSE 18:52:26 84° WSW 18:56:11 10° NNW
Cosmos 1703 3.2 18:49:36 10° N 18:53:35 77° E 18:57:29 10° SSE
Cosmos 1842 Rocket 3.8 18:52:23 10° S 18:56:41 50° E 19:00:59 10° NNE
Cosmos 2333 4.2 18:53:15 10° NNW 18:59:00 77° ENE 19:04:46 10° SE
Lacrosse 5 rocket 1.9 18:56:04 10° W 19:00:29 56° N 19:04:40 10° ENE
Cosmos 1500 Rocket 3.5 18:56:41 10° N 19:01:04 86° E 19:05:23 10° SSE
Cosmos 1908 4.0 18:58:46 10° SSE 19:02:13 31° E 19:05:41 10° NNE
Meteor 2-21 Rocket 4.5 18:57:36 10° S 19:03:41 90° E 19:09:46 10° NNE
Aureole 2 Rocket 2.9 19:00:27 10° NNW 19:04:12 49° ENE 19:08:08 10° SE
SJ-6B 4.3 19:02:27 10° E 19:04:49 16° ENE 19:07:11 10° NNE
MONITOR-E 4.4 19:02:44 10° SE 19:05:42 46° ENE 19:08:41 10° N
Cosmos 2237 Rocket 2.7 19:01:04 10° NNW 19:06:30 41° NE 19:11:53 10° ESE
RESURS DK-1 4.3 19:04:03 10° NW 19:07:49 34° WSW 19:11:33 10° S
Cosmos 44 4.2 19:06:58 10° S 19:10:27 24° ESE 19:13:49 11° ENE
H-2A R/B 4.0 19:09:41 10° ESE 19:12:49 23° ENE 19:15:59 10° N
Abrixas rocket 3.4 19:09:58 10° WSW 19:13:01 35° S 19:16:03 10° ESE
Cosmos 1452 Rocket 4.5 19:13:19 10° NNW 19:18:26 52° WSW 19:23:30 10° S
SL-16 R/B 3.2 19:14:06 10° NNW 19:19:02 29° NE 19:23:14 13° E
NOSS 0 Rocket 4.0 19:13:20 10° NNW 19:19:31 65° NE 19:25:37 10° SE
Cosmos 2227 Rocket 3.8 19:18:24 10° ESE 19:20:48 13° E 19:21:12 13° E
SMAP 4.3 19:17:32 10° S 19:22:01 46° W 19:26:32 10° NNW
Sich 1 3.5 19:19:42 10° N 19:23:49 38° ENE 19:27:57 10° SE
BREEZE-M DEB (TANK) 4.5 19:21:37 10° W 19:25:18 43° SSW 19:37:02 10° SE
Cosmos 1892 4.3 19:23:10 10° NNE 19:25:31 15° ENE 19:25:59 15° ENE
Iridium 4 Rocket 4.0 19:20:21 10° SSE 19:25:51 48° E 19:31:32 10° NNE
Cosmos 1300 4.0 19:23:23 10° SE 19:26:14 20° E 19:29:05 10° NE
Cosmos 2360 Rocket 3.9 19:21:21 10° NW 19:26:31 37° WSW 19:31:39 10° S
SPOT 3 Rocket 3.5 19:21:29 10° SSE 19:26:42 82° ENE 19:31:57 10° NNW
Aureole 1 Rocket 4.0 19:22:42 10° SW 19:28:06 57° WNW 19:32:13 10° NNE
COSMO-SKYMED 1 2.7 19:25:25 10° NNE 19:29:40 50° E 19:33:55 10° S
USA 234 3.5 19:23:45 13° ENE 19:29:41 65° N 19:36:10 10° W
Cosmos 1980 3.8 19:25:32 10° NNW 19:31:09 59° NE 19:36:44 10° SE
Cosmos 2151 4.1 19:27:04 10° NNW 19:31:13 48° W 19:35:18 10° SSW
ATLAS 5 CENTAUR R/B 3.4 19:26:41 10° WNW 19:31:16 29° N 19:35:38 13° ENE
Cosmos 2058 4.1 19:28:08 10° NNW 19:32:11 47° W 19:36:09 10° SSW
Cosmos 1110 Rocket 4.1 19:28:37 10° NNW 19:33:56 62° ENE 19:39:10 10° SE
FREGAT/IRIS 3.3 19:33:17 14° SE 19:35:21 31° ENE 19:38:04 10° N
Resurs 01 Rocket 3.0 19:35:06 18° E 19:36:29 21° ENE 19:39:46 10° N
Cosmos 2082 Rocket 4.3 19:34:53 10° WNW 19:39:00 20° NNW 19:43:10 10° NNE
Cosmos 1805 Rocket 3.5 19:35:47 10° N 19:40:12 76° ENE 19:44:37 10° SSE
COSMOS 2428 3.4 19:35:31 10° NW 19:41:06 57° WSW 19:46:39 10° SSE
Cosmos 2098 Rocket 3.8 19:36:52 10° SSE 19:41:53 54° E 19:48:10 10° NNE
CZ-4C R/B 2.7 19:38:49 10° S 19:43:43 38° ESE 19:48:07 15° ENE
Cosmos 2333 Rocket 2.2 19:38:16 10° NNW 19:44:02 90° W 19:49:49 10° SSE
FENGYUN 3A 3.6 19:40:44 10° SSE 19:46:09 84° ENE 19:51:37 10° NNW
Cosmos 44 Rocket 3.5 19:43:01 10° SSW 19:47:31 46° ESE 19:50:40 18° ENE
GRACE-2 4.3 19:46:44 10° SSW 19:49:16 56° W 19:51:49 10° N
Cosmos 1666 Rocket 3.5 19:45:17 10° N 19:49:38 63° ENE 19:53:55 10° SSE
Cosmos 1833 4.4 19:44:58 10° SW 19:50:39 76° WNW 19:56:19 10° NNE
Cosmos 2219 3.4 19:45:27 10° S 19:50:57 49° ESE 19:56:27 10° NE
Cosmos 158 Rocket 3.9 19:48:18 10° SSW 19:53:25 73° ESE 19:58:41 10° NNE
Cosmos 1633 Rocket 3.1 19:49:49 10° N 19:54:13 59° ENE 19:58:36 10° SSE
Meteor 2-10 4.3 19:49:31 10° SSE 19:54:13 40° E 19:59:04 10° NNE
EO 1 Del DPAF 3.3 19:51:18 10° NNE 19:55:10 79° WNW 19:59:01 10° SSW
Cosmos 1535 Rocket 4.5 19:49:36 10° S 19:55:34 58° E 20:01:33 10° NNE
YAOGAN 1 4.4 19:53:10 10° SSW 19:57:08 34° W 20:01:08 10° NNW
Cosmos 1726 2.1 19:53:31 10° S 19:57:08 58° E 20:00:47 10° NNE
Cosmos 1933 Rocket 4.2 19:53:24 10° N 19:57:21 32° ENE 19:58:29 28° E
Cosmos 2297 Rocket 3.6 19:53:38 10° SE 19:56:00 18° ESE 19:56:00 18° ESE
Lacrosse 4 Rocket 3.9 19:57:23 10° NNW 19:58:52 11° N 20:00:21 10° NNE
APEX 2.3 19:56:17 10° SSW 19:59:08 62° ESE 19:59:36 50° ENE
Cosmos 1048 Rocket 3.9 19:54:32 10° SSW 19:59:37 69° ESE 20:04:44 10° NNE
CZ-4 R/B 4.1 19:56:40 10° SSW 20:00:03 23° W 20:03:23 10° NW
Envisat 3.6 20:05:02 28° E 20:06:45 36° ENE 20:11:21 10° N
Cosmos 2219 Rocket 3.0 20:07:50 10° NW 20:13:16 52° WSW 20:18:40 10° S
Cosmos 1939 Rocket 4.4 20:18:37 23° NE 20:18:37 23° NE 20:20:56 10° N
SKYMED 2 4.1 20:13:30 10° N 20:17:49 60° WNW 20:22:05 10° SSW
Cosmos 2221 3.1 20:13:54 10° SSW 20:18:11 59° WNW 20:22:32 10° N
Thor Agena Rocket 3.5 20:15:31 10° NNE 20:20:35 59° ESE 20:25:35 10° S
FengYun 1-2 T 4.2 20:15:20 10° SSE 20:20:50 85° WSW 20:26:22 10° NNW
HJ-1C 3.3 20:20:51 48° SSE 20:21:42 80° ENE 20:25:10 10° NNW
ALOS 3.3 20:17:19 10° S 20:21:51 48° W 20:26:24 10° NNW
Cosmos 1934 Rocket 3.9 20:17:06 10° S 20:23:28 77° E 20:29:50 10° NNE
Meteor 2-2 Rocket 4.2 20:18:15 10° S 20:23:45 54° E 20:29:14 10° NNE
Cosmos 1821 Rocket 4.0 20:19:15 10° SSW 20:25:28 84° W 20:31:50 10° N
Cosmos 1331 Rocket 4.4 20:22:06 10° NNW 20:27:18 64° WSW 20:32:25 10° S
SJ-6B 3.0 20:37:14 28° S 20:39:05 64° WSW 20:42:49 10° NNW
Lacrosse 5 rocket 1.6 20:35:53 10° WNW 20:40:11 56° N 20:40:29 54° NNE
Meteor 1-27 4.4 20:36:07 10° SSE 20:41:36 48° E 20:47:11 10° NNE
BREEZE-M DEB (TANK) 3.8 20:36:54 10° W 20:44:51 37° SSW 20:45:54 33° SSE
H-2A R/B 3.9 20:43:07 10° S 20:46:52 44° W 20:50:41 10° NNW
Cosmos 1470 Rocket 3.6 20:43:36 10° NNW 20:48:06 80° W 20:49:38 41° S
Abrixas rocket 4.3 20:46:33 10° WSW 20:48:35 21° SW 20:48:35 21° SW
Cosmos 2237 Rocket 3.0 20:45:14 10° NW 20:50:43 49° WSW 20:55:32 13° S
Cosmos 44 3.3 20:46:59 10° SW 20:51:18 64° NW 20:52:16 48° NNE
SL-8 R/B 4.1 20:50:02 10° WSW 20:54:42 49° S 20:54:42 49° S
Cosmos 1943 4.2 20:50:37 10° NNW 20:55:32 30° NE 20:55:32 30° NE
Cosmos 1302 Rocket 4.4 20:51:33 10° NNW 20:56:44 62° WSW 20:59:12 30° S
Cosmos 1605 Rocket 3.9 20:53:51 10° S 20:59:57 87° W 21:06:06 10° N
MOS 1-B Rocket 4.1 20:56:56 20° S 21:01:09 75° WSW 21:07:43 10° NNW
Cosmos 1300 3.8 20:58:00 10° SSW 21:01:40 43° WNW 21:05:22 10° N
Cosmos 1892 3.4 20:57:55 10° NNW 21:01:03 52° NW 21:01:03 52° NW
BREEZE M DEB (TANK) 4.4 21:00:26 10° W 21:02:08 14° SW 21:02:08 14° SW
Cosmos 2227 Rocket 2.2 20:58:11 10° SSW 21:03:07 60° SSE 21:03:07 60° SSE
SL-16 R/B 2.2 20:58:04 10° NNW 21:03:48 80° WSW 21:05:09 54° SSE
Cosmos 1603 4.0 20:58:44 10° NNW 21:04:05 49° NE 21:04:05 49° NE
Cosmos 1153 Rocket 4.3 20:59:21 10° S 21:05:30 75° E 21:11:45 10° NNE
Spot 2 Rocket 3.4 21:09:46 70° S 21:10:21 82° WSW 21:15:28 10° NNW
USA 234 3.2 21:11:06 58° E 21:12:31 82° NNE 21:19:06 10° WNW
Resurs 01 Rocket 1.9 21:12:41 66° W 21:12:41 66° W 21:17:00 10° NNW
Cosmos 494 Rocket 3.9 21:07:40 10° SSW 21:12:47 84° WNW 21:13:13 75° N
CZ-2D R/B 4.3 21:14:21 44° W 21:14:21 44° W 21:17:54 10° NNW
Resurs 1-3 4.0 21:15:52 62° WNW 21:15:52 62° WNW 21:19:54 10° NNW
ATLAS 5 CENTAUR R/B 2.8 21:11:51 10° NW 21:17:11 45° NNE 21:17:11 45° NNE
Cosmos 1992 Rocket 4.1 21:15:27 10° NNW 21:20:04 68° N 21:20:04 68° N
Meteor 2-3 Rocket 4.3 21:16:31 10° NNW 21:22:09 56° W 21:25:11 27° SSW
Meteor 2-17 Rocket 4.3 21:17:03 10° S 21:23:09 88° E 21:29:18 10° NNE
Cosmos 44 Rocket 4.2 21:24:38 10° WSW 21:29:07 43° NW 21:29:24 42° NNW
CZ-4C R/B 2.6 21:26:26 10° WSW 21:31:57 63° NW 21:33:19 50° NNE
H-2A R/B 3.8 21:35:14 23° NNE 21:35:14 23° NNE 21:37:38 10° N
Cosmos 2219 4.3 21:29:49 10° WSW 21:35:15 42° NW 21:39:41 15° NNE
Lacrosse 4 Rocket 4.0 21:36:34 10° NNW 21:37:41 14° N 21:37:41 14° N
Cosmos 2297 Rocket 3.5 21:35:19 10° SSW 21:37:56 29° SSW 21:37:56 29° SSW
Envisat 4.0 21:45:15 42° WSW 21:45:43 43° W 21:50:34 10° NNW
Lacrosse 5 rocket 4.3 22:15:21 10° WNW 22:16:10 15° WNW 22:16:10 15° WNW
SL-16 R/B 4.5 22:43:34 10° WNW 22:47:03 17° W 22:47:03 17° W
Cosmos 2227 Rocket 4.3 22:43:08 10° WSW 22:45:03 20° W 22:45:03 20° W
ATLAS 5 CENTAUR R/B 4.2 22:56:31 10° NW 22:58:43 25° NW 22:58:43 25° NW
CZ-4C R/B 4.4 23:16:10 10° WNW 23:18:32 22° WNW 23:18:32 22° WNW
